Regional Weather Roundup
Issued by NWS

Home | Current Version | Previous Version | Graphics & Text | Print | Product List | Glossary On
Versions: 1 2 3 4 5 6 7 8 9 10 11 12 13 14 15 16 17 18 19 20 21 22 23 24 25 26 27 28 29 30 31 32 33 34 35 36 37 38 39 40 41 42 43 44 45 46 47 48 49 50
000
ASUS43 KFSD 050702
RWRSD

WEATHER ROUNDUP FOR SOUTH DAKOTA
NATIONAL WEATHER SERVICE SIOUX FALLS SD
100 AM CST THU MAR 05 2015

NOTE: "FAIR" INDICATES FEW OR NO CLOUDS BELOW 12,000 FEET WITH NO
SIGNIFICANT WEATHER AND/OR OBSTRUCTIONS TO VISIBILITY.


SDZ001>005-009-010-012>017-050800-
NORTHWEST AND NORTH CENTRAL SOUTH DAKOTA

CITY           SKY/WX    TMP DP  RH WIND       PRES   REMARKS
BUFFALO          N/A      4  -5  66 S10       30.09F WCI -11
FAITH            N/A     -1 -10  65 S14       30.25F WCI -20
MOBRIDGE       CLEAR     -1  -8  72 S8        30.32S WCI -15
$$

SDZ012>016-024>037-041>051-057-063-072>074-050800-
SOUTHWEST AND SOUTH CENTRAL SOUTH DAKOTA

CITY           SKY/WX    TMP DP  RH WIND       PRES   REMARKS
RAPID CTY ARPT CLEAR      6   0  76 S9        30.21F WCI  -8
PIERRE         PTCLDY    -5 -11  75 SE6       30.38S WCI -18
CUSTER         PTCLDY     1  -6  72 S3        30.04F
ELLSWORTH AFB  PTCLDY     8   1  73 S12       30.18F WCI  -7
PHILIP         PTCLDY    -6 -11  79 CALM      30.32F
PINE RIDGE     PTCLDY    -5 -10  79 NW3       30.25F
SPEARFISH      FAIR      10  -4  52 W8        30.13F WCI  -1
WINNER         FAIR       3  -9  57 S6        30.37F WCI  -8
$$

SDZ004>011-016>023-039-040-050800-
NORTHEAST SOUTH DAKOTA

CITY           SKY/WX    TMP DP  RH WIND       PRES   REMARKS
ABERDEEN       CLEAR    -14 -20  74 S3        30.43F
WATERTOWN      CLEAR    -10 -17  71 CALM      30.38F
SISSETON         N/A     -8 -14  74 NW6       30.44R WCI -21
$$

SDZ017-020-022-023-036>040-048>070-050800-
SOUTHEAST SOUTH DAKOTA

CITY           SKY/WX    TMP DP  RH WIND       PRES   REMARKS
SIOUX FALLS    CLEAR     -6 -11  79 NW3       30.44S
HURON          CLEAR     -9 -14  78 CALM      30.46F
MITCHELL         N/A     -3  -8  79 CALM      30.48F
YANKTON        CLEAR     -2 -11  65 NW5       30.47S WCI -12
$$

ABBREVIATIONS USED IN REMARKS
   TC - TEMPERATURE IN CELSIUS
  WCI - WIND CHILL INDEX
   HX - HEAT INDEX
  VSB - VISIBILITY



USA.gov is the U.S. government's official web portal to all federal, state and local government web resources and services.